Weather History for Las Vegas, NM

Change the Weather History Date:

Saturday, July 13, 2013

  Actual Average Record
Temperature  
Mean Temperature 72 °F -  
Max Temperature 86 °F 83 °F 95 °F (2003)
Min Temperature 61 °F 53 °F 48 °F (1960)
Cooling Degree Days 8    
Growing Degree Days 22 (Base 50)    
Moisture  
Dew Point 51 °F    
Average Humidity 49    
Maximum Humidity 72    
Minimum Humidity 26    
Precipitation  
Precipitation 0.01 in - - ()
Sea Level Pressure  
Sea Level Pressure 29.93 in    
Wind  
Wind Speed 9 mph (SW)    
Max Wind Speed 20 mph    
Max Gust Speed 29 mph    
Visibility 10 miles    
Events Rain    
Averages and records for this station are not official NWS values.
T = Trace of Precipitation, MM = Missing Value Source: NWS Daily Summary

Daily Weather History Graph

Daily Weather History Graph

Search for Another Location

Airport:

Trip Planner

Search our weather history database for the weather conditions in past years. The results will help you decide how hot, cold, wet, or windy it might be!

Date:

Astronomy

Jul. 13, 2013 Rise Set
Actual Time 5:55 AM MDT 8:17 PM MDT
Civil Twilight 5:25 AM MDT 8:46 PM MDT
Nautical Twilight 4:49 AM MDT 9:22 PM MDT
Astronomical Twilight 4:09 AM MDT 10:02 PM MDT
Moon 11:01 AM MDT (7/13) 11:12 PM MDT (7/13)
Length of Visible Light 15h 20m
Length of Day
14h 22m
Waxing Crescent, 26% of the Moon is Illuminated
Jul 13
Waxing Crescent
Jul 15
First Quarter
Jul 22
Full
Jul 29
Last Quarter
Aug 6
New

Hourly Weather History & Observations

Time (MDT) Temp. Dew Point Humidity Pressure Visibility Wind Dir Wind Speed Gust Speed Precip Events Conditions
12:53 AM 64.9 °F 52.0 °F 63% 29.94 in 10.0 mi South 6.9 mph - N/A   Clear
1:53 AM 64.9 °F 51.1 °F 61% 29.93 in 10.0 mi SSW 8.1 mph - N/A   Clear
2:53 AM 64.9 °F 50.0 °F 58% 29.91 in 10.0 mi South 8.1 mph - N/A   Clear
3:53 AM 63.0 °F 50.0 °F 63% 29.91 in 10.0 mi SSW 8.1 mph - N/A   Clear
4:53 AM 61.0 °F 48.9 °F 64% 29.93 in 10.0 mi South 10.4 mph - N/A   Clear
5:53 AM 61.0 °F 50.0 °F 67% 29.96 in 10.0 mi South 9.2 mph - N/A   Clear
6:53 AM 61.0 °F 52.0 °F 72% 29.97 in 10.0 mi West 3.5 mph - N/A   Partly Cloudy
7:53 AM 66.0 °F 52.0 °F 60% 29.98 in 10.0 mi Calm Calm - N/A   Clear
8:53 AM 73.0 °F 52.0 °F 48% 29.96 in 10.0 mi South 13.8 mph - N/A   Clear
9:53 AM 77.0 °F 51.1 °F 40% 29.94 in 10.0 mi SSW 12.7 mph 19.6 mph N/A   Clear
10:53 AM 80.1 °F 50.0 °F 35% 29.93 in 10.0 mi South 12.7 mph - N/A   Clear
11:53 AM 82.0 °F 48.0 °F 30% 29.91 in 10.0 mi South 17.3 mph 23.0 mph N/A   Clear
12:53 PM 84.9 °F 46.0 °F 26% 29.91 in 10.0 mi South 13.8 mph 23.0 mph N/A   Scattered Clouds
1:53 PM 78.1 °F 48.0 °F 35% 29.92 in 10.0 mi NNW 19.6 mph 28.8 mph N/A   Mostly Cloudy
2:53 PM 81.0 °F 48.9 °F 33% 29.91 in 10.0 mi West 9.2 mph - N/A   Mostly Cloudy
3:53 PM 81.0 °F 48.9 °F 33% 29.90 in 10.0 mi West 5.8 mph - N/A   Mostly Cloudy
4:53 PM 81.0 °F 46.9 °F 30% 29.89 in 10.0 mi West 5.8 mph - N/A   Partly Cloudy
5:53 PM 82.0 °F 46.0 °F 28% 29.87 in 10.0 mi South 13.8 mph - N/A   Mostly Cloudy
6:12 PM 73.4 °F 57.2 °F 57% 30.23 in 10.0 mi WNW 15.0 mph - 0.00 in Rain Light Rain
6:53 PM 75.0 °F 55.9 °F 51% 29.91 in 10.0 mi WNW 3.5 mph - 0.01 in   Mostly Cloudy
7:53 PM 73.0 °F 55.9 °F 55% 29.90 in 10.0 mi Calm Calm - N/A   Scattered Clouds
8:53 PM 71.1 °F 53.1 °F 53% 29.90 in 10.0 mi South 6.9 mph - N/A   Scattered Clouds
9:53 PM 68.0 °F 51.1 °F 55% 29.91 in 10.0 mi SSW 9.2 mph - N/A   Clear
10:53 PM 69.1 °F 52.0 °F 54% 29.91 in 10.0 mi SW 4.6 mph - N/A   Clear
11:53 PM 68.0 °F 52.0 °F 56% 29.92 in 10.0 mi NNW 3.5 mph - N/A   Overcast